Overview Statistics Trail Chart Weather Telemetry Raw packets
 

This is the latest recevied weather packets stored in our database for station/object KW4UJ. If no packets are shown the sender has not sent any weather packets the latest 10 day(s).

<< 49 50 51 52 53 54 55 >>
Time Temp. Humidity Pressure Rain* Wind** Luminosity Snow
1788300465 33.33° C 61% 1014.2 hPa 0 mm - 70 W/m² -
1788300164 32.78° C 60% 1014.3 hPa 0 mm - 95 W/m² -
1788299863 33.33° C 59% 1014.4 hPa 0 mm - 57 W/m² -
1788299563 33.89° C 56% 1014.3 hPa 0 mm - 122 W/m² -
1788299261 33.89° C 55% 1014.4 hPa 0 mm - 77 W/m² -
1788298960 34.44° C 54% 1014.3 hPa 0 mm - 71 W/m² -
1788298655 35° C 53% 1014.6 hPa 0 mm - 186 W/m² -
1788298355 35° C 53% 1014.3 hPa 0 mm - 224 W/m² -
1788298054 34.44° C 54% 1014.2 hPa 0 mm - 191 W/m² -
1788297750 34.44° C 53% 1014.4 hPa 0 mm - 176 W/m² -
1788297445 35° C 53% 1014.3 hPa 0 mm - 239 W/m² -
1788297142 34.44° C 53% 1014.3 hPa 0 mm - 262 W/m² -
1788296838 35° C 53% 1014.4 hPa 0 mm - 271 W/m² -
1788296533 34.44° C 56% 1014.5 hPa 0 mm - 294 W/m² -
1788296229 33.89° C 55% 1014.5 hPa 0 mm - 217 W/m² -
1788295923 34.44° C 56% 1014.5 hPa 0 mm - 134 W/m² -
1788295642 34.44° C 55% 1014.5 hPa 0 mm - 305 W/m² -
1788295315 34.44° C 53% 1014.5 hPa 0 mm - 221 W/m² -
1788295014 35° C 53% 1014.5 hPa 0 mm - 188 W/m² -
1788294710 35° C 53% 1014.7 hPa 0 mm - 326 W/m² -
1788294408 35° C 52% 1014.6 hPa 0 mm - 341 W/m² -
1788294105 35° C 51% 1014.5 hPa 0 mm - 315 W/m² -
1788293800 35° C 53% 1014.8 hPa 0 mm - 398 W/m² -
1788293500 35° C 53% 1015 hPa 0 mm - 407 W/m² -
1788293200 34.44° C 53% 1014.8 hPa 0 mm - 419 W/m² -

* Rain latest hour (hover to see other rain measurements)
** Current wind speed in m/s (hover to see current wind gust speed)